Location: Colebrook
(42.0017°N, 73.0973°W)
Time: 14:00:54
(UTC-04:00)

Envisat - Pass Details

Date: 30 September 2021
Orbit: 764 x 766 km, 98.2° (Epoch: 22 October)

Event Time Altitude Azimuth Distance (km) Brightness Sun altitude
Rises 05:12:39 0° 24° (NNE) 3,239 6.8 -18.5°
Reaches altitude 10° 05:15:16 10° 36° (NE) 2,308 6.2 -18.0°
Maximum altitude 05:19:39 28° 95° (E) 1,393 5.1 -17.2°
Drops below altitude 10° 05:23:59 10° 154° (SSE) 2,293 5.6 -16.5°
Sets 05:26:34 0° 166° (SSE) 3,214 6.3 -16.0°
